Location: ????????
(55.6676°N, 38.8570°E)
Time: 15:38:17
(UTC+00:00)

Daily predictions for brighter satellites

Satellite Brightness Start Highest point End
(mag) Time Altitude Azimuth Time Altitude Azimuth Time Altitude Azimuth
IRS-1A Rocket 4.4 16:24:29 10° SSE 16:30:10 84° ENE 16:35:59 10° NNW
STARLINK-1113 3.9 16:26:24 10° W 16:30:29 60° S 16:34:35 10° ESE
ATLAS CENTAUR R/B 2.5 16:26:09 10° WSW 16:30:30 48° NNW 16:34:33 10° NE
NOSS 2-2 (E) 4.5 16:26:31 10° NW 16:31:32 66° NNE 16:38:29 10° ESE
S3M 4.1 16:26:00 10° S 16:32:15 60° E 16:38:33 10° NNE
Cosmos 1356 4.2 16:29:14 10° SSW 16:32:39 59° WNW 16:36:05 10° N
ARGOS 3.2 16:27:45 10° SSE 16:33:08 69° ENE 16:38:31 10° NNW
Cosmos 1386 Rocket 4.5 16:27:35 10° N 16:33:43 83° ENE 16:39:45 10° SSE
COSMO-SKYMED 1 4.0 16:30:17 10° N 16:34:26 44° WNW 16:38:35 10° SW
ADEOS Rocket 3.4 16:27:20 10° NNE 16:34:32 89° WNW 16:40:55 10° SSW
FREGAT/IRIS 2.3 16:31:56 10° SSE 16:34:38 65° ENE 16:37:22 10° N
STARLINK-1119 3.9 16:31:23 10° W 16:35:28 59° S 16:39:33 10° ESE
Cosmos 1302 Rocket 4.1 16:33:22 10° NNW 16:38:37 64° ENE 16:43:52 10° SE
NOSS 2-2 (C) 4.4 16:33:57 10° NW 16:38:51 64° NNE 16:45:37 10° ESE
STARLINK-1114 3.9 16:36:21 10° W 16:40:26 58° S 16:44:32 10° ESE
Cosmos 1470 4.0 16:39:42 10° SE 16:42:44 22° E 16:45:48 10° NE
COSMOS 2428 3.0 16:37:15 10° SW 16:43:00 77° NW 16:48:46 10° NNE
Cosmos 2369 Rocket 2.8 16:37:59 10° NNW 16:43:27 43° NE 16:48:51 10° ESE
SJ-6B 2.9 16:39:44 10° SSE 16:43:47 68° ENE 16:47:55 10° N
STARLINK-1130 (DARKSAT) 3.9 16:41:18 10° W 16:45:23 57° S 16:49:18 11° ESE
Meteor 1-22 Rocket 4.2 16:40:23 10° S 16:45:29 51° E 16:50:36 10° NNE
MetOp-A 4.3 16:43:06 10° SE 16:48:19 56° ENE 16:53:34 10° N
STARLINK-67 4.2 16:46:36 10° SSW 16:48:24 17° SSE 16:49:41 13° ESE
STARLINK-1084 3.9 16:46:17 10° W 16:50:21 56° S 16:54:06 12° ESE
MONITOR-E 3.8 16:47:53 10° SSE 16:50:32 80° WSW 16:53:13 10° NNW
Terra 3.9 16:50:04 10° ENE 16:51:49 12° NE 16:53:34 10° NNE
ERBS 2.8 16:49:44 10° SW 16:52:55 39° SSE 16:56:06 10° ENE
Cosmos 1455 Rocket 3.1 16:49:28 10° S 16:53:43 57° E 16:58:01 10° NNE
Cosmos 1892 Rocket 4.2 16:49:58 10° NNW 16:54:25 63° W 16:58:50 10° S
STARLINK-1098 4.0 16:51:15 10° W 16:55:19 55° S 16:58:52 13° ESE
SeaSat 1 3.3 16:50:41 10° NNE 16:55:32 56° NW 17:00:22 10° SW
USA 186 2.2 16:52:08 10° S 16:55:34 73° WSW 16:58:58 10° NNW
Cosmos 1626 Rocket 3.6 16:52:32 10° N 16:56:57 60° ENE 17:01:17 10° SSE
Okean 1-7 Rocket 4.0 16:53:33 10° NNW 16:57:57 66° W 17:02:18 10° S
CZ-2C R/B 3.1 16:53:52 10° SSE 16:58:55 78° WSW 17:03:47 10° NNW
Cosmos 2084 3.5 16:55:22 10° SW 16:59:49 68° SE 17:04:17 10° NE
STARLINK-1123 4.0 16:56:15 10° W 17:00:18 54° SSW 17:03:41 14° ESE
Aureole 2 Rocket 3.4 16:57:21 10° NNW 17:00:32 31° NE 17:02:55 15° ESE
SL-14 R/B 3.3 16:56:56 10° NNW 17:01:01 89° ENE 17:05:04 10° S
CZ-2C R/B 4.3 16:56:54 10° NNE 17:01:25 39° E 17:05:51 10° SSE
STARLINK-1234 4.3 16:59:50 10° SSW 17:02:01 19° SSE 17:03:03 16° ESE
Cosmos 1602 Rocket 3.7 16:59:34 10° N 17:04:01 56° ENE 17:08:23 10° SSE
STARLINK-1097 4.0 17:01:12 10° W 17:05:15 53° SSW 17:08:27 16° ESE
Cosmos 1733 3.1 17:01:45 10° S 17:05:30 75° E 17:09:17 10° NNE
Cosmos 2219 Rocket 3.0 17:00:10 10° SW 17:05:44 56° NW 17:11:19 10° NNE
NOSS 2-1 (C) 3.0 17:02:54 10° SW 17:06:19 73° SE 17:10:18 10° NE
STARLINK-1099 4.0 17:06:11 10° W 17:10:14 52° SSW 17:13:14 17° ESE
NOSS 2-1 (D) 3.0 17:07:05 10° SW 17:10:30 79° SE 17:14:31 10° NE
Cosmos 2084 Rocket 3.5 17:06:07 10° NW 17:10:37 80° NE 17:14:06 16° ESE
ERS-1 Rocket 4.3 17:08:59 14° E 17:12:03 23° NE 17:15:58 10° N
STARLINK-1201 4.4 17:10:08 10° SSW 17:12:40 21° SSE 17:13:33 19° SE
Cosmos 1980 3.7 17:07:34 10° SSW 17:13:16 87° ESE 17:19:00 10° NE
Cosmos 1943 Rocket 2.2 17:07:49 10° NNW 17:13:22 70° NE 17:18:06 14° SE
Cosmos 2184 Rocket 4.3 17:08:16 10° N 17:14:27 49° ENE 17:20:04 12° SE
Cosmos 1048 Rocket 4.1 17:09:26 10° SSW 17:14:35 82° WNW 17:19:51 10° NNE
Cosmos 1766 3.7 17:10:52 10° SSW 17:14:50 67° WNW 17:18:50 10° N
STARLINK-1104 4.1 17:11:11 10° W 17:15:12 51° SSW 17:18:01 18° SE
SPOT 3 Rocket 3.6 17:12:22 10° SSE 17:17:37 86° WSW 17:22:52 10° NNW
NOSS 0 Rocket 4.0 17:11:45 10° SW 17:17:59 83° NW 17:24:13 10° NE
STARLINK-1144 4.1 17:16:08 10° W 17:20:09 49° SSW 17:22:48 20° SE
IRIDIUM 103 4.4 17:15:46 10° N 17:20:57 59° E 17:26:07 10° SSE
Cosmos 1544 Rocket 3.5 17:16:35 10° S 17:20:59 78° E 17:25:27 10° NNE
Cosmos 1726 3.5 17:20:59 20° E 17:21:36 20° E 17:24:25 10° NE
Cosmos 1825 Rocket 4.2 17:19:30 10° N 17:23:43 39° ENE 17:26:22 20° SE
Cosmos 494 Rocket 3.9 17:19:16 10° SSW 17:24:25 79° ESE 17:29:39 10° NNE
Cosmos 2333 Rocket 3.4 17:19:27 10° WSW 17:24:54 45° NW 17:30:21 10° NNE
STARLINK-1103 4.1 17:21:06 10° W 17:25:06 48° SSW 17:27:34 21° SE
ISS -3.0 17:23:03 10° WSW 17:26:13 38° S 17:27:43 24° SE
SL-16 R/B 2.4 17:20:50 10° S 17:26:14 49° ESE 17:31:41 10° NE
Cosmos 1953 3.1 17:24:15 17° SE 17:26:35 31° E 17:30:08 10° NNE
NOSS 3-4 (A) 4.1 17:22:10 10° NW 17:28:40 57° NNE 17:34:22 17° E
NOSS 3-4 (C) 4.1 17:22:16 10° NW 17:28:46 57° NNE 17:34:28 17° E
STARLINK-1101 4.2 17:26:05 10° W 17:30:04 46° SSW 17:32:22 22° SE
SPOT 5 4.1 17:28:31 17° E 17:30:22 22° ENE 17:33:46 10° N
Cosmos 1758 Rocket 3.7 17:28:12 10° N 17:32:32 52° ENE 17:35:15 21° SE
STARLINK-1102 4.2 17:31:05 10° W 17:35:03 45° SSW 17:37:10 24° SE
Cosmos 2154 Rocket 4.4 17:29:00 10° N 17:35:07 46° ENE 17:39:19 20° SE
Cosmos 2315 Rocket 4.0 17:29:08 10° S 17:35:27 81° E 17:41:51 10° NNE
COSMOS 2455 3.9 17:30:52 10° NW 17:36:25 36° NNE 17:40:53 15° E
Cosmos 1953 Rocket 4.2 17:34:24 10° N 17:38:35 38° ENE 17:40:32 25° ESE
IRIDIUM 106 4.3 17:34:02 10° N 17:39:18 79° E 17:44:31 10° S
STARLINK-1233 4.0 17:36:43 10° SW 17:39:19 27° SSE 17:39:19 27° SSE
STARLINK-1236 4.5 17:36:18 10° SSW 17:39:43 27° SSE 17:40:13 26° SE
STARLINK-1212 4.0 17:37:11 10° SW 17:39:44 27° SSE 17:39:44 27° SSE
STARLINK-1111 4.3 17:36:02 10° W 17:39:58 43° SSW 17:41:55 25° SE
STARLINK-1228 3.8 17:37:38 10° SW 17:39:56 28° S 17:39:56 28° S
STARLINK-1105 4.0 17:37:36 10° SW 17:40:11 27° SSE 17:40:11 27° SSE
STARLINK-1206 4.0 17:38:06 10° SW 17:40:36 27° SSE 17:40:36 27° SSE
Cosmos 1626 3.6 17:37:38 10° NNW 17:41:05 36° W 17:44:30 10° SSW
STARLINK-1247 4.0 17:38:32 10° SW 17:41:02 27° SSE 17:41:02 27° SSE
STARLINK-1227 4.0 17:38:56 10° SW 17:41:29 27° SSE 17:41:29 27° SSE
MOS 1 Rocket 3.6 17:36:49 10° NNE 17:41:51 56° E 17:47:06 10° S
STARLINK-1218 4.0 17:39:26 10° SW 17:41:54 27° SSE 17:41:54 27° SSE
STARLINK-1226 4.0 17:39:52 10° SW 17:42:21 27° SSE 17:42:21 27° SSE
STARLINK-1209 3.8 17:40:10 10° SW 17:42:19 27° S 17:42:19 27° S
STARLINK-1254 4.0 17:40:16 10° SW 17:42:47 28° SSE 17:42:47 28° SSE
STARLINK-1215 4.0 17:40:46 10° SW 17:43:12 27° SSE 17:43:12 27° SSE
STARLINK-1231 4.0 17:41:12 10° SW 17:43:37 27° SSE 17:43:37 27° SSE
STARLINK-1232 4.0 17:42:06 10° SW 17:44:30 27° S 17:44:30 27° S
SPOT 1/Viking Rocket 4.0 17:42:07 23° ESE 17:44:56 44° ENE 17:49:54 10° N
STARLINK-1073 4.3 17:41:01 10° W 17:44:56 42° SSW 17:46:42 27° SSE
STARLINK-1217 4.0 17:42:32 10° SW 17:44:56 28° S 17:44:56 28° S
Cosmos 2360 Rocket 4.5 17:40:53 10° WNW 17:45:22 24° NNW 17:49:52 10° NNE
STARLINK-1208 4.0 17:42:57 10° SW 17:45:24 28° S 17:45:24 28° S
Aureole 3 3.7 17:42:04 11° S 17:45:56 61° E 17:51:08 10° NNE
STARLINK-1229 4.0 17:43:26 10° SW 17:45:48 28° S 17:45:48 28° S
STARLINK-1271 4.0 17:43:52 10° SW 17:46:14 28° S 17:46:14 28° S
Landsat 7 4.2 17:44:35 25° SE 17:47:00 47° ENE 17:51:35 10° N
STARLINK-1270 4.0 17:44:20 10° SW 17:46:40 28° S 17:46:40 28° S
STARLINK-1154 4.0 17:44:46 10° SW 17:47:05 28° S 17:47:05 28° S
STARLINK-1197 4.0 17:45:40 10° SW 17:47:58 28° S 17:47:58 28° S
STARLINK-1269 4.4 17:45:18 10° SSW 17:48:49 30° SSE 17:49:01 29° SE
STARLINK-1189 4.0 17:46:06 10° SW 17:48:24 28° S 17:48:24 28° S
STARLINK-1187 3.9 17:46:51 10° SW 17:49:21 30° S 17:49:21 30° S
STARLINK-1188 4.0 17:47:00 10° SW 17:49:16 28° S 17:49:16 28° S
STARLINK-1121 4.4 17:46:00 10° W 17:49:54 40° SSW 17:51:29 28° SSE
DMSP B5D2-2 4.0 17:44:45 10° NNE 17:49:59 70° ESE 17:55:11 10° S
STARLINK-1198 4.0 17:47:27 10° SW 17:49:43 28° S 17:49:43 28° S
USA 245 4.2 17:47:16 24° SE 17:50:17 62° ENE 17:56:07 10° N
STARLINK-1235 3.7 17:47:29 10° SW 17:50:09 33° S 17:50:09 33° S
Cosmos 1703 3.6 17:46:39 10° N 17:50:30 47° ENE 17:51:46 33° ESE
Cosmos 1606 Rocket 4.3 17:50:13 29° ESE 17:51:10 32° E 17:55:09 10° NNE
Resurs 1-3 4.2 17:46:55 10° S 17:51:14 56° W 17:55:34 10° NNW
STARLINK-1199 4.0 17:48:54 10° SW 17:51:12 28° S 17:51:12 28° S
STARLINK-1191 4.0 17:49:21 10° SW 17:51:37 28° S 17:51:37 28° S
STARLINK-1210 4.0 17:49:47 10° SW 17:52:03 28° S 17:52:03 28° S
STARLINK-1221 4.0 17:50:28 10° SW 17:52:42 28° S 17:52:42 28° S
STARLINK-1200 4.3 17:49:47 10° SW 17:53:21 31° SSE 17:53:25 31° SSE
Spot 2 Rocket 3.5 17:50:10 23° SSE 17:53:25 70° ENE 17:58:32 10° NNW
STARLINK-1219 4.0 17:50:42 10° SW 17:52:56 28° S 17:52:56 28° S
STARLINK-1222 4.0 17:51:08 10° SW 17:53:21 28° S 17:53:21 28° S
Cosmos 1461 4.2 17:50:10 10° NW 17:54:11 34° NNE 17:56:38 20° ENE
STARLINK-1211 4.0 17:51:35 10° SW 17:53:47 28° S 17:53:47 28° S
CZ-4C R/B 3.4 17:48:53 10° W 17:54:27 46° N 18:01:10 10° ENE
Cosmos 1980 Rocket 4.5 17:51:11 10° NW 17:54:48 17° N 17:58:25 10° NE
STARLINK-1106 4.4 17:50:58 10° W 17:54:50 39° SSW 17:56:15 29° SSE
STARLINK-1214 4.0 17:52:01 10° SW 17:54:13 28° S 17:54:13 28° S
STARLINK-1245 4.1 17:52:30 10° SW 17:54:38 28° S 17:54:38 28° S
STARLINK-1238 4.1 17:52:56 10° SW 17:55:05 28° S 17:55:05 28° S
Resurs 01 Rocket 1.9 17:52:08 14° S 17:55:50 68° WSW 18:00:15 10° NNW
STARLINK-1205 4.1 17:54:05 10° SW 17:56:09 27° S 17:56:09 27° S
STARLINK-1204 4.1 17:54:18 10° SW 17:56:21 27° S 17:56:21 27° S
Cosmos 2344 4.5 17:49:27 10° W 17:57:09 54° N 18:06:57 10° ENE
Cosmos 2237 Rocket 2.9 17:51:49 10° SW 17:57:22 57° NW 18:02:58 10° NNE
STARLINK-1192 4.3 17:54:15 10° SW 17:57:47 32° SSE 17:57:47 32° SSE
NOSS 2-1 (E) 3.8 17:55:11 10° WSW 17:58:41 59° NNW 18:02:57 10° NE
H-2A R/B 4.0 17:54:21 10° SSW 17:58:51 28° W 18:03:18 10° NNW
Cosmos 292 Rocket 3.9 17:55:01 10° NNW 17:59:48 71° WSW 18:02:43 24° SSE
STARLINK-1112 4.5 17:55:59 10° W 17:59:50 37° SSW 18:01:04 30° SSE
ATLAS 2AS CENTAUR R/B 3.0 17:53:47 10° NW 18:01:40 72° NNE 18:06:11 26° ESE
Nadezhda 1 Rocket 4.3 17:58:04 21° SSE 18:02:02 47° E 18:08:06 10° NNE
CZ-2C R/B 2.4 17:57:10 10° NNE 18:02:25 75° ESE 18:07:35 10° S
STARLINK-1244 4.3 17:58:50 10° SW 18:02:15 33° SSE 18:02:15 33° SSE
Meteor 2-15 Rocket 4.4 17:57:07 10° S 18:03:12 89° E 18:09:20 10° NNE
MetOp-B 4.1 17:59:35 21° SSE 18:03:18 90° ENE 18:08:42 10° NNW
STARLINK-1138 4.3 18:03:21 10° SW 18:06:39 34° S 18:06:39 34° S
USA 234 3.2 18:02:09 10° ENE 18:08:39 61° SSE 18:15:06 10° SW
ATLAS CENTAUR R/B 3.5 18:06:39 10° WNW 18:10:13 25° N 18:13:36 10° NE
Cosmos 2074 Rocket 4.1 18:04:21 10° NNW 18:10:38 79° W 18:15:50 16° S
STARLINK-1143 4.3 18:07:56 10° SW 18:11:07 34° S 18:11:07 34° S
Cosmos 1656 Rocket 3.7 18:12:19 10° NNW 18:18:04 79° NE 18:20:27 36° SE
Cosmos 1470 3.8 18:14:50 10° SW 18:18:33 45° WNW 18:22:20 10° N
Cosmos 921 Rocket 3.8 18:16:05 10° NNW 18:19:58 34° NE 18:20:34 33° ENE
Cosmos 1758 4.3 18:16:01 10° SSW 18:20:00 49° WNW 18:24:01 10° N
Cosmos 1437 3.0 18:18:01 10° NNW 18:21:02 58° WSW 18:21:18 54° SW
Cosmos 2228 3.0 18:22:32 51° SE 18:23:10 57° E 18:27:25 10° NNE
STARLINK-1241 4.4 18:20:31 10° SW 18:23:15 33° SSW 18:23:15 33° SSW
Cosmos 1610 Rocket 4.4 18:18:05 10° NNW 18:24:23 90° ENE 18:27:59 27° S
Cosmos 2369 Rocket 2.7 18:22:08 10° NW 18:27:42 55° WSW 18:30:41 27° S
Cosmos 2058 Rocket 3.7 18:28:24 39° E 18:28:24 39° E 18:32:23 10° NNE
Terra 2.2 18:27:35 41° E 18:28:33 48° ENE 18:33:08 10° N
Cosmos 2263 4.3 18:23:24 10° NW 18:29:00 68° WSW 18:31:28 34° S
ERBS 2.3 18:25:43 10° W 18:29:06 78° NNW 18:29:12 78° N
Cosmos 2251 Rocket 3.5 18:27:33 17° S 18:31:43 66° ESE 18:37:04 10° NNE
Aureole 2 Rocket 3.8 18:31:11 10° NW 18:34:21 32° WSW 18:35:07 29° SW
Iridium 4 Rocket 3.9 18:31:08 10° N 18:35:17 35° ENE 18:35:17 35° ENE
Cosmos 2341 Rocket 4.0 18:31:20 10° N 18:37:41 69° ENE 18:40:05 40° SE
Cosmos 1908 3.3 18:41:26 60° NE 18:41:26 60° NE 18:44:51 10° NNE
Cosmos 2058 4.1 18:39:40 10° N 18:42:55 30° NE 18:42:55 30° NE
Mayak 0.9 18:44:05 10° NE 18:45:09 14° NE 18:45:09 14° NE
ERS-1 Rocket 2.9 18:48:58 49° S 18:50:22 81° WSW 18:55:27 10° NNW
Cosmos 1340 Rocket 3.8 18:53:15 36° NE 18:53:15 36° NE 18:55:58 10° NNE
Cosmos 1943 3.2 18:54:20 53° SE 18:54:40 54° ESE 19:00:13 10° NE
Cosmos 1825 4.5 18:52:51 10° NNE 18:54:25 15° NE 18:54:25 15° NE
Cosmos 1726 3.0 18:55:26 35° WSW 18:56:32 47° WNW 19:00:12 10° N
Cosmos 1943 Rocket 3.7 18:52:03 10° NW 18:56:43 28° WSW 18:59:39 18° SSW
CARTOSAT-1 3.5 18:57:08 70° SSW 18:57:32 77° WSW 19:01:54 10° NNW
IGS 5A 4.2 18:59:00 40° SW 18:59:51 46° W 19:03:53 10° NNW
Cosmos 1076 Rocket 4.2 18:56:18 10° N 18:59:55 42° NE 18:59:55 42° NE
ISS -1.1 19:00:01 10° WSW 19:00:42 13° WSW 19:00:42 13° WSW
Cosmos 1953 3.9 18:59:51 13° SW 19:02:58 33° WNW 19:06:37 10° N
Cosmos 1726 Rocket 3.6 19:02:25 60° SW 19:03:06 75° WNW 19:07:33 10° N
SPOT 5 2.7 19:07:45 63° SW 19:08:07 67° WSW 19:12:30 10° NNW
Cosmos 2218 Rocket 3.9 19:02:00 10° N 19:08:11 71° ENE 19:09:28 55° SE
SL-16 R/B 3.2 19:05:01 10° WSW 19:10:27 46° NW 19:15:57 10° NNE
Cosmos 1697 Rocket 4.1 19:11:26 10° NNW 19:16:24 30° NNE 19:18:28 24° ENE
Meteor 2-12 Rocket 4.4 19:11:52 10° N 19:18:00 64° ENE 19:18:53 57° ESE
NOSS 3-4 (A) 3.8 19:13:09 10° NW 19:19:55 67° SW 19:21:48 50° SSE
NOSS 3-4 (C) 3.8 19:13:15 10° NW 19:20:01 68° SW 19:21:54 50° SSE
Cosmos 2181 Rocket 3.9 19:21:13 60° SE 19:22:05 67° E 19:28:17 10° NNE
COSMOS 2455 2.7 19:17:00 10° NW 19:23:06 87° NE 19:24:02 66° SE
Cosmos 2151 4.3 19:19:17 10° N 19:22:12 30° NE 19:22:12 30° NE
Cosmos 1763 Rocket 4.1 19:21:28 10° NNW 19:26:32 44° NE 19:26:53 44° ENE
Cosmos 1603 3.7 19:29:06 34° SW 19:31:41 79° NW 19:37:20 10° NNE
Aureole 1 Rocket 4.2 19:29:27 48° S 19:31:41 72° ESE 19:38:04 10° NNE
NOSS 3-3 (A) 3.8 19:30:46 44° SSW 19:32:49 74° SE 19:39:44 10° NE
NOSS 3-3 (C) 3.8 19:31:02 47° SSW 19:32:55 74° SE 19:39:50 10° NE
Cosmos 1461 3.4 19:29:15 10° NW 19:33:01 63° WNW 19:33:01 63° WNW
RESURS DK-1 4.1 19:30:23 10° NNW 19:33:55 26° NE 19:33:58 26° NE
Thor Agena Rocket 4.4 19:29:41 10° NNE 19:33:08 35° ENE 19:33:08 35° ENE
ASTEX 1 3.8 19:38:01 53° NE 19:38:01 53° NE 19:42:24 10° N
Cosmos 1980 Rocket 3.8 19:35:57 10° NNW 19:40:44 28° NNE 19:42:51 22° ENE
Cosmos 967 Rocket 4.4 19:39:25 38° SW 19:42:06 83° SE 19:48:39 10° NE
CZ-4C R/B 3.4 19:38:08 10° WNW 19:44:14 48° NNE 19:49:17 20° E
SL-8 Rocket 4.3 19:39:17 10° NNW 19:45:29 62° W 19:46:52 50° SW
ATLAS CENTAUR R/B 3.0 19:46:38 10° NW 19:50:13 27° NNE 19:50:28 27° NNE
USA 234 3.2 19:45:22 10° ENE 19:51:56 85° N 19:58:30 10° W
Cosmos 2366 rocket 4.0 19:45:56 10° NNW 19:52:02 68° W 19:52:57 59° SW
ATLAS 2AS CENTAUR R/B 3.2 19:45:11 10° NW 19:52:28 48° WSW 19:53:37 44° SSW
Cosmos 1892 4.2 19:49:37 10° NNW 19:52:03 37° NNW 19:52:03 37° NNW
Cosmos 841 Rocket 4.2 19:49:14 10° NNW 19:54:18 44° NE 19:54:23 44° NE
Cosmos 1140 Rocket 4.0 19:57:19 48° NE 19:57:19 48° NE 20:01:08 10° NNE
Cosmos 468 Rocket 4.1 19:52:32 10° NNW 19:57:22 72° NNE 19:57:22 72° NNE
Cosmos 921 Rocket 4.4 19:54:25 10° NW 19:57:22 33° WNW 19:57:22 33° WNW
Cosmos 407 Rocket 3.7 20:02:33 67° NNE 20:02:33 67° NNE 20:07:00 10° NNE
Nadezhda 3 Rocket 4.4 20:02:34 49° E 20:02:34 49° E 20:08:19 10° NNE
ALOS 2 3.7 20:04:59 39° NNE 20:04:59 39° NNE 20:08:07 10° N
Meteor 2-3 Rocket 4.3 19:59:52 10° N 20:05:28 47° ENE 20:05:28 47° ENE
Cosmos 540 Rocket 4.1 20:00:41 10° NNW 20:05:30 46° NE 20:05:30 46° NE
Terra 3.1 20:06:28 31° W 20:06:29 31° W 20:10:45 10° NNW
Spot 4 4.2 20:09:38 61° NNW 20:09:38 61° NNW 20:13:37 10° NNW
SL-08 R/B 4.5 20:06:50 10° NNW 20:12:56 68° W 20:13:18 67° WSW
Cosmos 2344 4.3 20:04:35 10° WNW 20:13:07 70° NNE 20:20:31 25° ESE
USA 32 4.2 20:09:23 10° N 20:14:13 66° WNW 20:14:13 66° WNW
Iridium 4 Rocket 4.5 20:11:13 10° NNW 20:15:04 34° WNW 20:15:04 34° WNW
Mayak 0.1 20:19:01 10° N 20:21:43 37° N 20:21:43 37° N
Meteor 2-10 Rocket 4.3 20:25:01 45° NE 20:25:01 45° NE 20:28:51 10° NNE
Cosmos 2369 4.0 20:19:40 10° NNW 20:25:16 58° NE 20:25:16 58° NE
Cosmos 1656 3.8 20:22:07 10° NW 20:27:23 76° NNW 20:27:23 76° NNW
Cosmos 1825 4.3 20:27:27 10° NNW 20:29:14 26° NNW 20:29:14 26° NNW
ATLAS 5 CENTAUR R/B 4.2 20:35:14 14° ENE 20:35:14 14° ENE 20:35:58 10° ENE
Cosmos 1821 Rocket 4.0 20:30:35 10° NNW 20:36:54 74° W 20:36:58 74° WSW
Cosmos 2239 Rocket 4.4 20:32:36 10° NNW 20:38:44 79° W 20:38:44 79° W
Cosmos 1943 4.2 20:36:02 25° W 20:38:56 43° NW 20:44:22 10° NNE
Cosmos 1814 Rocket 4.4 20:43:01 10° NNW 20:47:27 61° NNW 20:47:27 61° NNW
Cosmos 1605 Rocket 4.0 20:49:00 10° N 20:54:49 71° NE 20:54:49 71° NE
SL-16 R/B 3.7 20:54:54 10° NNW 20:59:57 31° NE 21:02:04 25° ENE
Cosmos 1934 Rocket 4.0 20:54:02 10° NNW 21:00:10 76° WNW 21:00:10 76° WNW
Cosmos 1697 Rocket 3.0 20:55:23 10° NW 21:00:12 65° NNW 21:00:12 65° NNW
Cosmos 1818 4.0 21:03:16 60° N 21:03:16 60° N 21:08:14 10° NE
SL-16 R/B 4.1 21:05:25 21° E 21:07:55 28° NE 21:13:04 10° N
COSMOS 2455 4.4 21:03:32 10° WNW 21:07:10 24° W 21:07:10 24° W
Cosmos 2360 4.5 21:05:05 10° NW 21:10:00 66° NNW 21:10:00 66° NNW
Cosmos 2322 Rocket 3.6 21:10:41 10° NNW 21:15:49 33° NE 21:17:53 26° ENE
Cosmos 2360 Rocket 4.1 21:12:50 10° NNW 21:17:29 25° NNE 21:22:07 10° E
Cosmos 1980 Rocket 2.5 21:19:55 10° NNW 21:24:37 62° NNW 21:24:37 62° NNW
ATLAS CENTAUR R/B 3.9 21:25:42 10° NW 21:26:38 16° NW 21:26:38 16° NW
Cosmos 2278 4.2 21:26:19 10° NW 21:30:43 55° NW 21:30:43 55° NW
CZ-4C R/B 2.7 21:26:46 10° NW 21:33:32 86° NE 21:34:25 72° ESE
USA 234 3.2 21:28:24 10° E 21:34:58 84° N 21:41:33 10° WNW
COSMOS 2406 3.7 21:37:14 54° NE 21:37:14 54° NE 21:41:41 10° NE
Cosmos 2082 Rocket 3.3 21:47:55 34° ENE 21:47:55 34° ENE 21:51:46 10° NE
Mayak 1.5 21:56:13 10° NNW 21:57:57 12° NW 21:58:18 12° NW
SME Rocket 4.0 21:55:36 10° NNE 22:00:30 57° N 22:00:30 57° N
Cosmos 1802 Rocket 4.0 21:56:25 10° N 22:02:45 74° ENE 22:02:45 74° ENE
Cosmos 1727 Rocket 3.9 22:07:46 84° NNW 22:07:46 84° NNW 22:13:55 10° NNE
ATLAS 5 CENTAUR R/B 2.6 22:16:44 48° N 22:16:44 48° N 22:21:02 10° NE
Cosmos 1833 Rocket 2.8 22:20:06 69° NE 22:20:06 69° NE 22:25:04 10° NE
Cosmos 1725 Rocket 4.0 22:14:28 10° N 22:20:49 70° ENE 22:21:15 68° ESE
Cosmos 2100 Rocket 4.0 22:14:57 10° NNW 22:20:41 69° WNW 22:20:41 69° WNW
Cosmos 2219 Rocket 4.1 22:18:09 10° NNW 22:22:55 27° NNE 22:27:39 10° E
MOZ.5/SAFIR/RUBIN 5/SL-8 4.5 22:25:56 53° NNE 22:25:56 53° NNE 22:29:46 10° NNW
Helios 1B rocket 4.1 22:20:58 10° N 22:23:22 32° N 22:23:22 32° N
Cosmos 2233 Rocket 4.5 22:19:49 10° N 22:26:03 54° ENE 22:27:16 47° ESE
MOS 1-B Rocket 4.2 22:21:14 10° NNE 22:26:46 55° WNW 22:26:54 55° WNW
Cosmos 1459 Rocket 4.0 22:20:33 10° NNW 22:26:41 70° W 22:26:41 70° W
Meteor 2-2 Rocket 4.5 22:28:08 61° NW 22:28:08 61° NW 22:33:25 10° N
Cosmos 2344 4.3 22:18:55 10° NW 22:27:58 59° SW 22:30:29 50° S
Cosmos 2016 Rocket 3.9 22:22:14 10° NNW 22:28:41 90° ESE 22:28:47 87° SSE
Cosmos 2221 4.2 22:30:48 29° NNW 22:30:48 29° NNW 22:33:32 10° N
CZ-2D R/B 3.2 22:29:07 10° NNE 22:34:08 36° E 22:34:19 36° E
Cosmos 2123 Rocket 4.2 22:33:56 57° ESE 22:34:22 58° E 22:40:25 10° NNE
SL-08 R/B 4.3 22:30:13 10° NNW 22:36:24 88° ENE 22:36:30 87° SE
USA 267 4.4 22:34:17 10° ENE 22:39:13 28° ESE 22:39:13 28° ESE
Resurs 1-4 Rocket 2.9 22:37:32 10° NNE 22:42:33 40° E 22:42:36 40° E
Cosmos 2333 Rocket 3.8 22:38:00 10° NNW 22:43:07 33° NE 22:48:12 10° E
SL-16 R/B 2.3 22:39:00 10° NW 22:43:54 66° NW 22:43:54 66° NW
CZ-4B R/B 4.4 22:40:13 10° NNE 22:44:29 37° E 22:44:29 37° E
Cosmos 2173 Rocket 4.3 22:40:52 10° NNW 22:46:13 51° WNW 22:46:13 51° WNW
ADEOS II 3.9 22:46:27 10° NE 22:50:28 22° E 22:51:57 19° ESE
Cosmos 1486 Rocket 4.1 22:51:11 72° NNE 22:51:11 72° NNE 22:55:56 10° NNE
SL-16 R/B 2.4 22:50:30 78° S 22:50:56 87° WSW 22:57:14 10° NNW
Cosmos 2061 Rocket 4.0 22:47:15 10° NNW 22:53:13 64° W 22:53:13 64° W
H-2A R/B 4.0 22:52:51 22° E 22:54:16 26° ENE 22:57:46 10° N
Cosmos 2322 Rocket 2.3 22:54:45 10° NW 22:59:40 66° WNW 22:59:40 66° WNW
Cosmos 2360 Rocket 2.3 22:56:50 10° NNW 23:02:29 70° NE 23:03:57 49° ESE
ERS-2 3.8 23:06:06 32° NNE 23:06:06 32° NNE 23:08:22 10° N
Cosmos 1980 Rocket 4.1 23:04:36 10° NW 23:06:22 17° WNW 23:06:22 17° WNW
Cosmos 1607 3.9 23:13:58 61° SSE 23:14:25 63° SE 23:20:35 10° NE
Cosmos 2237 Rocket 4.3 23:10:06 10° NNW 23:14:52 27° NNE 23:19:38 10° E
USA 234 3.1 23:11:45 10° SE 23:18:14 63° SSW 23:24:44 10° WNW
BREEZE-M DEB (TANK) 3.8 23:05:13 10° W 23:18:20 61° SSW 23:22:46 10° ESE
Cosmos 1869 Rocket 4.0 23:14:20 10° N 23:18:28 60° NE 23:18:28 60° NE
COSMOS 2406 4.3 23:19:16 30° WNW 23:20:47 35° NW 23:26:01 10° NNE
SeaSat 1 4.0 23:16:26 10° ESE 23:20:53 35° NE 23:25:22 10° NNW
CZ-4C R/B 3.8 23:15:28 10° WNW 23:19:34 31° W 23:19:34 31° W
Meteor 2-20 4.4 23:21:12 63° S 23:22:14 81° E 23:28:26 10° NNE
Cosmos 1606 4.0 23:23:43 38° N 23:23:43 38° N 23:26:14 10° N
Cosmos 2228 Rocket 3.5 23:22:41 58° E 23:22:41 58° E 23:27:06 10° NNE
Cosmos 1315 Rocket 4.2 23:28:17 33° NNW 23:28:17 33° NNW 23:31:03 10° N
Cosmos 2082 Rocket 2.5 23:29:45 50° WNW 23:30:31 54° NW 23:36:06 10° NNE
SL-08 R/B 3.6 23:30:52 54° SE 23:31:50 69° ENE 23:36:47 10° NNW
NOSS 2-1 (E) 4.5 23:27:27 10° NW 23:33:37 54° SSE 23:39:14 10° SE
Cosmos 1354 Rocket 3.9 23:35:05 72° W 23:35:23 74° WNW 23:40:42 10° NNE
Cosmos 2237 4.0 23:30:17 10° NW 23:36:01 76° WSW 23:36:45 66° S
Cosmos 1515 Rocket 3.8 23:36:50 60° NNW 23:36:50 60° NNW 23:40:33 10° N
Cosmos 1151 Rocket 3.9 23:39:13 41° NW 23:39:13 41° NW 23:42:43 10° N
Cosmos 839 Rocket 4.5 23:40:24 42° SSE 23:42:00 52° ESE 23:48:39 10° NE
Meteor 2-11 Rocket 4.4 23:36:06 10° NNW 23:42:17 83° ENE 23:44:49 38° SSE
SL-27 R/B 4.0 23:44:15 33° N 23:44:15 33° N 23:46:16 10° NNE
Cosmos 1500 3.8 23:42:30 10° N 23:46:03 54° ENE 23:46:03 54° ENE
COSMOS 2428 3.3 23:40:37 10° NNW 23:46:17 58° NE 23:51:55 10° SE
SL-4 R/B 4.2 23:49:55 15° ESE 23:49:55 15° ESE 23:50:48 10° ESE
NPP 3.5 23:42:24 10° NNE 23:47:50 82° WNW 23:48:41 64° SW
Cosmos 44 3.0 23:49:25 76° E 23:49:25 76° E 23:53:35 10° NE
Cosmos 968 Rocket 3.9 23:48:38 46° WNW 23:49:13 48° NW 23:54:20 10° NNE
Meteor 1-11 Rocket 4.2 23:44:01 10° N 23:49:50 62° ENE 23:55:07 13° SSE
Cosmos 1891 Rocket 4.5 23:44:39 10° N 23:51:04 84° E 23:54:14 32° SSE
IRS-1D 3.5 23:46:55 10° NNE 23:51:54 73° ESE 23:52:52 56° SSE
Cosmos 1072 Rocket 4.4 23:46:26 10° NNW 23:52:37 89° E 23:55:25 35° S
